Regional Weather Roundup
Issued by NWS Goodland, KS

Home | Current Version | Previous Version | Graphics & Text | Print | Product List | Glossary On
Versions: 1 2 3 4 5 6 7 8 9 10 11 12 13 14 15 16 17 18 19 20 21 22 23 24 25 26 27 28 29 30 31 32 33 34 35 36 37 38 39 40 41 42 43 44 45 46 47 48 49 50
000
ASUS43 KGLD 030759
RWRGLD

GOODLAND FORECAST AREA HOURLY WEATHER ROUNDUP
NATIONAL WEATHER SERVICE GOODLAND KS
100 AM MST TUE MAR 03 2015

...OFFICIAL OBSERVATIONS...

CITY           SKY/WX    TMP DP  RH WIND       PRES   REMARKS
GOODLAND KS    CLOUDY    37  31  78 W14G24    29.56F
HILL CITY KS   CLOUDY    34  29  82 S10G18    29.58F
IMPERIAL NEB     N/A     28  24  85 N8        29.58S
MCCOOK NEB     CLOUDY    31  24  75 E8        29.60F
AKRON CO       FOG       28  28 100 W9        29.57S VSB 1/4
BURLINGTON CO  CLOUDY    36  30  79 W17       29.60R
LIMON CO       MOCLDY    25  20  81 NW7       29.61R HAZE
$$

...UNOFFICIAL OBSERVATIONS...

CITY           SKY/WX    TMP DP  RH WIND       PRES   REMARKS
COLBY KS       PTCLDY    36  36 100 SW9G21    29.58R
GOVE KS          N/A     38  32  79 MISG        N/A
LENORA KS        N/A     31  32 100 S5          N/A
SHARON SPRINGS   N/A     36  33  88 S10G18      N/A
KIT CARSON CO    N/A     33  30  90 MISG        N/A
YUMA CO          N/A     29  27  91 N5          N/A
$$


USA.gov is the U.S. government's official web portal to all federal, state and local government web resources and services.